Ravenna, OH

6:18 PM EDT on March 23, 2017 (GMT -0400)
Ravenna

Weather History for KPOV - June, 2013

Change the Weather History Date:

Wednesday, June 19, 2013

  Actual Average (KCAK) Record (KCAK)
Temperature  
Mean Temperature 61 °F -  
Max Temperature 72 °F 79 °F 94 °F (1994)
Min Temperature 50 °F 58 °F 46 °F (1947)
Degree Days  
Heating Degree Days 4    
Growing Degree Days 11 (Base 50)    
Moisture  
Dew Point 47 °F    
Average Humidity 59    
Maximum Humidity 85    
Minimum Humidity 37    
Precipitation  
Precipitation 0.00 in - - ()
Sea Level Pressure  
Sea Level Pressure 30.12 in    
Wind  
Wind Speed 5 mph (NE)    
Max Wind Speed 12 mph    
Max Gust Speed 16 mph    
Visibility 10 miles    
Events      
Averages and records for this station are not official NWS values.
T = Trace of Precipitation, MM = Missing Value Source: NWS Daily Summary

Daily Weather History Graph

Daily Weather History Graph

Search for Another Location

Airport or City:

Trip Planner

Search our weather history database for the weather conditions in past years. The results will help you decide how hot, cold, wet, or windy it might be!

Date:

Astronomy

Jun. 19, 2013 Rise Set
Actual Time 5:51 AM EDT 9:00 PM EDT
Civil Twilight 5:18 AM EDT 9:34 PM EDT
Nautical Twilight 4:34 AM EDT 10:18 PM EDT
Astronomical Twilight 3:43 AM EDT 11:09 PM EDT
Moon 4:50 PM EDT (6/19) 2:37 AM EDT (6/19)
Length of Visible Light 16h 16m
Length of Day
15h 09m
Waxing Gibbous, 80% of the Moon is Illuminated
Jun 19
Waxing Gibbous
Jun 23
Full
Jun 30
Last Quarter
Jul 8
New
Jul 15
First Quarter

Hourly Weather History & Observations

Time (EDT) Temp. Dew Point Humidity Pressure Visibility Wind Dir Wind Speed Gust Speed Precip Events Conditions
12:14 AM 56.7 °F 44.8 °F 64% 30.04 in 10.0 mi NNE 4.6 mph - N/A   Clear
12:33 AM 56.5 °F 44.6 °F 64% 30.04 in 10.0 mi NE 5.8 mph - N/A   Clear
12:53 AM 56.1 °F 44.6 °F 65% 30.04 in 10.0 mi NNE 4.6 mph - N/A   Clear
1:14 AM 56.3 °F 44.2 °F 64% 30.03 in 10.0 mi NE 6.9 mph - N/A   Clear
1:33 AM 55.0 °F 44.6 °F 68% 30.03 in 10.0 mi ENE 5.8 mph - N/A   Clear
1:53 AM 54.9 °F 44.2 °F 67% 30.04 in 10.0 mi NE 6.9 mph - N/A   Clear
2:14 AM 55.2 °F 43.9 °F 66% 30.04 in 10.0 mi NNE 4.6 mph - N/A   Clear
2:34 AM 54.7 °F 44.1 °F 67% 30.04 in 10.0 mi NE 3.5 mph - N/A   Clear
2:53 AM 53.1 °F 44.2 °F 72% 30.04 in 10.0 mi Calm Calm - N/A   Clear
3:14 AM 52.5 °F 44.6 °F 74% 30.05 in 10.0 mi North 3.5 mph - N/A   Clear
3:33 AM 52.2 °F 44.6 °F 75% 30.05 in 10.0 mi NNE 4.6 mph - N/A   Clear
3:54 AM 50.5 °F 45.0 °F 81% 30.06 in 10.0 mi North 4.6 mph - N/A   Clear
4:14 AM 51.1 °F 44.8 °F 79% 30.06 in 10.0 mi NNE 4.6 mph - N/A   Clear
4:33 AM 50.7 °F 44.8 °F 80% 30.06 in 10.0 mi NNE 4.6 mph - N/A   Clear
4:53 AM 50.4 °F 45.3 °F 83% 30.07 in 10.0 mi NNE 3.5 mph - N/A   Clear
5:14 AM 51.3 °F 45.9 °F 82% 30.07 in 10.0 mi NE 4.6 mph - N/A   Clear
5:33 AM 50.9 °F 46.2 °F 84% 30.07 in 10.0 mi NNE 4.6 mph - N/A   Clear
5:53 AM 50.9 °F 46.4 °F 85% 30.08 in 10.0 mi NNE 4.6 mph - N/A   Clear
6:14 AM 50.9 °F 46.4 °F 85% 30.09 in 10.0 mi NE 3.5 mph - N/A   Clear
6:34 AM 51.6 °F 46.6 °F 83% 30.09 in 10.0 mi NE 4.6 mph - N/A   Clear
6:53 AM 52.9 °F 47.1 °F 81% 30.10 in 10.0 mi NE 5.8 mph - N/A   Clear
7:14 AM 54.3 °F 47.8 °F 79% 30.10 in 10.0 mi ENE 3.5 mph - N/A   Clear
7:33 AM 56.1 °F 48.2 °F 75% 30.11 in 10.0 mi ENE 8.1 mph - N/A   Clear
7:54 AM 57.2 °F 48.2 °F 72% 30.12 in 10.0 mi NE 8.1 mph - N/A   Clear
8:14 AM 58.8 °F 48.7 °F 69% 30.13 in 10.0 mi ENE 9.2 mph - N/A   Clear
8:33 AM 60.1 °F 48.9 °F 67% 30.14 in 10.0 mi NE 5.8 mph - N/A   Clear
8:53 AM 61.3 °F 48.9 °F 64% 30.15 in 10.0 mi ENE 8.1 mph - N/A   Clear
9:14 AM 62.6 °F 46.9 °F 57% 30.15 in 10.0 mi ENE 10.4 mph - N/A   Clear
9:33 AM 63.5 °F 46.8 °F 54% 30.15 in 10.0 mi NE 9.2 mph - N/A   Clear
9:54 AM 64.4 °F 46.4 °F 52% 30.15 in 10.0 mi East 11.5 mph 16.1 mph N/A   Clear
10:14 AM 64.9 °F 46.0 °F 50% 30.15 in 10.0 mi ENE 8.1 mph - N/A   Clear
10:33 AM 65.5 °F 46.9 °F 51% 30.15 in 10.0 mi East 11.5 mph - N/A   Clear
10:54 AM 66.6 °F 47.5 °F 50% 30.15 in 10.0 mi East 6.9 mph - N/A   Clear
11:14 AM 66.4 °F 46.6 °F 49% 30.15 in 10.0 mi NE 8.1 mph - N/A   Clear
11:33 AM 66.9 °F 45.3 °F 46% 30.16 in 10.0 mi NE 10.4 mph - N/A   Clear
11:54 AM 67.8 °F 47.7 °F 48% 30.15 in 10.0 mi East 8.1 mph - N/A   Clear
12:14 PM 68.2 °F 48.4 °F 49% 30.15 in 10.0 mi NNE 4.6 mph - N/A   Clear
12:33 PM 68.9 °F 48.0 °F 47% 30.15 in 10.0 mi NNE 4.6 mph - N/A   Clear
12:54 PM 69.3 °F 48.0 °F 47% 30.16 in 10.0 mi ENE 8.1 mph - N/A   Scattered Clouds
1:14 PM 69.1 °F 46.6 °F 45% 30.15 in 10.0 mi Calm Calm - N/A   Scattered Clouds
1:33 PM 69.6 °F 47.5 °F 45% 30.15 in 10.0 mi East 5.8 mph - N/A   Clear
1:54 PM 70.5 °F 47.5 °F 44% 30.15 in 10.0 mi North 5.8 mph - N/A   Clear
2:14 PM 70.3 °F 44.6 °F 40% 30.15 in 10.0 mi Calm Calm - N/A   Clear
2:33 PM 70.7 °F 46.9 °F 43% 30.15 in 10.0 mi NE 8.1 mph - N/A   Clear
2:54 PM 72.1 °F 49.5 °F 45% 30.15 in 10.0 mi North 6.9 mph - N/A   Clear
3:14 PM 71.8 °F 47.7 °F 42% 30.14 in 10.0 mi East 5.8 mph - N/A   Clear
3:33 PM 72.0 °F 48.6 °F 43% 30.13 in 10.0 mi NNW 4.6 mph - N/A   Clear
3:54 PM 71.8 °F 46.2 °F 40% 30.13 in 10.0 mi NE 6.9 mph - N/A   Clear
4:14 PM 72.1 °F 47.5 °F 41% 30.12 in 10.0 mi NE 3.5 mph - N/A   Clear
4:33 PM 72.7 °F 47.8 °F 41% 30.13 in 10.0 mi North 4.6 mph - N/A   Scattered Clouds
4:53 PM 72.9 °F 48.4 °F 42% 30.12 in 10.0 mi ENE 4.6 mph - N/A   Clear
5:14 PM 72.3 °F 44.4 °F 37% 30.12 in 10.0 mi Calm Calm - N/A   Clear
5:34 PM 72.3 °F 46.4 °F 40% 30.12 in 10.0 mi NE 3.5 mph - N/A   Clear
5:53 PM 72.3 °F 46.6 °F 40% 30.12 in 10.0 mi East 4.6 mph - N/A   Clear
6:14 PM 72.3 °F 45.0 °F 37% 30.12 in 10.0 mi Calm Calm - N/A   Clear
6:33 PM 72.3 °F 44.4 °F 37% 30.12 in 10.0 mi Calm Calm - N/A   Clear
6:54 PM 72.3 °F 47.3 °F 41% 30.12 in 10.0 mi ENE 4.6 mph - N/A   Clear
7:14 PM 71.1 °F 48.4 °F 44% 30.12 in 10.0 mi ENE 3.5 mph - N/A   Clear
7:33 PM 70.5 °F 49.6 °F 47% 30.12 in 10.0 mi ENE 4.6 mph - N/A   Clear
7:54 PM 70.0 °F 48.6 °F 46% 30.13 in 10.0 mi Calm Calm - N/A   Clear
8:14 PM 67.5 °F 52.2 °F 58% 30.12 in 10.0 mi East 4.6 mph - N/A   Clear
8:33 PM 65.7 °F 51.3 °F 60% 30.13 in 10.0 mi ENE 3.5 mph - N/A   Clear
8:53 PM 63.5 °F 50.4 °F 62% 30.13 in 10.0 mi NE 9.2 mph - N/A   Clear
9:14 PM 62.6 °F 48.9 °F 61% 30.13 in 10.0 mi NE 6.9 mph - N/A   Clear
9:33 PM 61.5 °F 47.7 °F 60% 30.15 in 10.0 mi NE 5.8 mph - N/A   Clear
9:53 PM 60.8 °F 47.5 °F 62% 30.15 in 10.0 mi Calm Calm - N/A   Clear
10:14 PM 59.2 °F 47.7 °F 66% 30.16 in 10.0 mi Calm Calm - N/A   Clear
10:34 PM 58.6 °F 46.8 °F 65% 30.17 in 10.0 mi NNE 4.6 mph - N/A   Clear
10:53 PM 57.4 °F 47.5 °F 70% 30.18 in 10.0 mi Calm Calm - N/A   Clear
11:14 PM 56.7 °F 47.1 °F 70% 30.18 in 10.0 mi Calm Calm - N/A   Clear
11:33 PM 56.3 °F 47.8 °F 73% 30.19 in 10.0 mi Calm Calm - N/A   Clear
11:54 PM 54.0 °F 47.7 °F 79% 30.19 in 10.0 mi ENE 3.5 mph - N/A   Clear